contact:dominique.lefevre@mio.osupytheas.fr, maurice.libes@osupytheas.fr, didier.mallarino@osupytheas.fr
Project:EMSO http://www.emso-fr.org/EMSO-France
Depth: 2436.0 m
Title:EMSO Ligure Ouest : Data MII capteur AQUADOPP
Date,Latitude,Longitude,X_East,Y_North,Z_Up,Amplitude_X,Amplitude_Y,Amplitude_Z,Batterie,SoundSpeed,Heading,Pitch,Roll,Pressure,TIS,Speed,Direction
, degrees North, degrees East, m.s-1, m.s-1,m.s-1, 1, 1, 1, Volt, m.s-1, degree, degree, degree, dbar, degree_C, m.s-1, degree
2023-02-07T00:04:03,42.805,6.029,-0.027,0.018,-0.035,105.0,105.0,103.0,13.4,1505.2,339.3,-0.8,1.9,2471.137,13.29,0.032,303.7
2023-02-07T00:07:03,42.805,6.029,-0.056,0.0,-0.013,105.0,106.0,104.0,13.4,1505.2,327.5,-0.8,1.8,2471.125,13.29,0.056,270.0
2023-02-07T00:10:03,42.805,6.029,-0.031,-0.013,-0.009,105.0,106.0,104.0,13.3,1505.2,320.1,-0.8,1.8,2471.146,13.29,0.033,247.3
2023-02-07T00:13:03,42.805,6.029,-0.024,-0.012,-0.016,104.0,105.0,103.0,13.4,1505.2,334.3,-0.8,1.8,2471.106,13.29,0.026,243.4
2023-02-07T00:16:03,42.805,6.029,-0.031,0.013,-0.028,107.0,105.0,104.0,13.3,1505.2,328.3,-0.8,1.8,2471.092,13.29,0.033,292.7
2023-02-07T00:19:03,42.805,6.029,-0.047,0.01,-0.006,106.0,105.0,104.0,13.4,1505.2,330.0,-0.8,1.8,2471.072,13.29,0.048,282.0
2023-02-07T00:22:03,42.805,6.029,-0.033,0.0,-0.005,104.0,106.0,104.0,13.4,1505.2,328.7,-0.8,1.8,2471.097,13.29,0.033,270.0
2023-02-07T00:25:03,42.805,6.029,-0.037,0.001,0.021,105.0,105.0,104.0,13.4,1505.2,327.3,-0.8,1.8,2471.14,13.29,0.037,271.5
2023-02-07T00:28:03,42.805,6.029,-0.029,0.01,-0.006,104.0,104.0,104.0,13.3,1505.2,322.9,-0.8,1.8,2471.071,13.29,0.03,289.0
2023-02-07T00:31:03,42.805,6.029,-0.021,-0.014,-0.021,105.0,106.0,103.0,13.4,1505.2,321.8,-0.8,1.8,2471.061,13.29,0.025,236.3
2023-02-07T00:34:03,42.805,6.029,-0.051,0.023,-0.028,105.0,105.0,103.0,13.4,1505.2,337.6,-0.8,1.8,2471.086,13.29,0.055,294.3
2023-02-07T00:37:03,42.805,6.029,-0.026,0.017,-0.026,104.0,105.0,103.0,13.4,1505.2,333.0,-0.8,1.8,2471.028,13.29,0.031,303.2
2023-02-07T00:40:03,42.805,6.029,-0.04,0.004,-0.011,105.0,104.0,104.0,13.3,1505.2,321.8,-0.7,1.8,2471.079,13.29,0.04,275.7
2023-02-07T00:43:03,42.805,6.029,-0.027,-0.006,-0.015,104.0,106.0,104.0,13.3,1505.2,319.2,-0.8,1.8,2471.086,13.29,0.027,257.5
2023-02-07T00:46:03,42.805,6.029,-0.03,0.026,0.003,105.0,103.0,104.0,13.3,1505.2,337.8,-0.7,1.8,2471.027,13.29,0.039,310.9
2023-02-07T00:49:03,42.805,6.029,-0.035,0.009,-0.009,105.0,104.0,103.0,13.4,1505.2,339.4,-0.8,1.8,2471.05,13.29,0.036,284.4
2023-02-07T00:52:03,42.805,6.029,-0.037,0.031,0.014,106.0,105.0,103.0,13.3,1505.2,326.3,-0.8,1.8,2471.088,13.29,0.048,310.0
2023-02-07T00:55:03,42.805,6.029,-0.043,0.03,-0.027,105.0,104.0,103.0,13.4,1505.2,336.9,-0.8,1.8,2471.057,13.29,0.052,304.9
2023-02-07T00:58:03,42.805,6.029,-0.046,0.002,-0.043,104.0,105.0,102.0,13.4,1505.2,324.1,-0.8,1.8,2471.074,13.29,0.046,272.5
2023-02-07T01:04:03,42.805,6.029,-0.046,0.013,-0.046,106.0,106.0,105.0,13.4,1505.2,325.0,-0.7,1.9,2471.108,13.28,0.047,285.8
2023-02-07T01:07:03,42.805,6.029,-0.048,0.02,-0.011,107.0,105.0,104.0,13.3,1505.2,321.2,-0.7,1.8,2471.115,13.29,0.052,292.6
2023-02-07T01:10:04,42.805,6.029,-0.047,0.026,-0.028,105.0,104.0,104.0,13.4,1505.2,320.8,-0.8,1.8,2471.099,13.29,0.053,298.9
2023-02-07T01:13:03,42.805,6.029,-0.022,0.004,0.015,105.0,104.0,102.0,13.4,1505.2,321.8,-0.8,1.8,2471.122,13.29,0.022,280.3
2023-02-07T01:16:03,42.805,6.029,-0.03,0.021,-0.01,105.0,105.0,102.0,13.3,1505.2,329.6,-0.7,1.8,2471.059,13.29,0.036,305.0
2023-02-07T01:19:03,42.805,6.029,-0.068,0.033,0.001,106.0,104.0,103.0,13.4,1505.2,335.3,-0.7,1.8,2471.011,13.29,0.075,295.9
2023-02-07T01:22:03,42.805,6.029,-0.039,0.026,-0.027,105.0,105.0,103.0,13.4,1505.2,318.1,-0.8,1.8,2471.064,13.29,0.046,303.7
2023-02-07T01:25:03,42.805,6.029,-0.05,-0.007,0.008,105.0,105.0,103.0,13.4,1505.2,319.7,-0.8,1.8,2471.088,13.29,0.05,262.0
2023-02-07T01:28:03,42.805,6.029,-0.047,0.025,0.001,104.0,104.0,104.0,13.3,1505.2,323.6,-0.8,1.8,2471.075,13.29,0.053,298.0
2023-02-07T01:31:03,42.805,6.029,-0.026,0.023,0.015,105.0,105.0,103.0,13.4,1505.2,338.2,-0.8,1.8,2471.062,13.29,0.034,311.5
2023-02-07T01:34:03,42.805,6.029,-0.033,0.021,-0.017,104.0,104.0,104.0,13.4,1505.2,337.3,-0.7,1.8,2471.046,13.29,0.039,302.5
2023-02-07T01:37:03,42.805,6.029,-0.047,0.042,-0.019,105.0,104.0,103.0,13.3,1505.2,333.0,-0.7,1.8,2471.055,13.29,0.063,311.8
2023-02-07T01:40:03,42.805,6.029,-0.057,0.023,-0.02,105.0,105.0,103.0,13.3,1505.2,322.0,-0.8,1.8,2471.068,13.29,0.061,292.0
2023-02-07T01:43:03,42.805,6.029,-0.036,-0.004,-0.024,105.0,105.0,103.0,13.4,1505.2,320.1,-0.7,1.8,2471.037,13.29,0.036,263.7
2023-02-07T01:46:03,42.805,6.029,-0.046,0.017,-0.023,105.0,105.0,103.0,13.4,1505.2,331.7,-0.8,1.8,2471.027,13.29,0.049,290.3
2023-02-07T01:49:03,42.805,6.029,0.0,0.0,-0.026,104.0,105.0,104.0,13.3,1505.2,330.1,-0.8,1.8,2471.037,13.29,0.0,0.0
2023-02-07T01:52:03,42.805,6.029,-0.03,0.005,-0.022,104.0,104.0,103.0,13.3,1505.2,321.7,-0.8,1.8,2471.067,13.29,0.03,279.5
2023-02-07T01:55:03,42.805,6.029,-0.026,0.022,-0.022,105.0,105.0,103.0,13.4,1505.2,336.9,-0.7,1.8,2471.075,13.29,0.034,310.2
2023-02-07T01:58:03,42.805,6.029,-0.029,0.013,-0.035,105.0,104.0,104.0,13.4,1505.2,330.1,-0.8,1.8,2471.059,13.29,0.031,294.1
2023-02-07T02:04:03,42.805,6.029,-0.039,0.001,-0.007,104.0,104.0,103.0,13.4,1505.2,324.6,-0.8,1.8,2471.115,13.28,0.039,271.5
2023-02-07T02:07:03,42.805,6.029,-0.014,0.023,-0.027,105.0,105.0,103.0,13.3,1505.2,336.1,-0.8,1.8,2471.116,13.29,0.026,328.7
2023-02-07T02:10:03,42.805,6.029,-0.041,0.009,-0.014,106.0,104.0,103.0,13.3,1505.2,329.6,-0.7,1.8,2471.058,13.29,0.041,282.4
2023-02-07T02:13:03,42.805,6.029,-0.029,0.006,-0.017,106.0,104.0,104.0,13.3,1505.2,322.9,-0.7,1.8,2471.096,13.29,0.029,281.7
2023-02-07T02:16:03,42.805,6.029,-0.036,0.028,0.0,105.0,104.0,103.0,13.3,1505.2,322.7,-0.7,1.8,2471.039,13.29,0.045,307.9
2023-02-07T02:19:03,42.805,6.029,-0.04,0.023,-0.016,104.0,106.0,103.0,13.4,1505.2,324.7,-0.7,1.8,2471.029,13.29,0.046,299.9
2023-02-07T02:22:03,42.805,6.029,-0.049,0.016,-0.018,104.0,105.0,104.0,13.4,1505.2,320.7,-0.7,1.8,2471.072,13.29,0.051,288.1
2023-02-07T02:25:02,42.805,6.029,-0.019,0.003,-0.002,105.0,104.0,103.0,13.3,1505.2,332.5,-0.8,1.8,2471.067,13.29,0.019,279.0
2023-02-07T02:28:02,42.805,6.029,-0.038,0.014,-0.01,105.0,103.0,104.0,13.3,1505.2,335.3,-0.7,1.8,2471.082,13.29,0.04,290.2
2023-02-07T02:31:02,42.805,6.029,-0.023,0.011,0.016,106.0,105.0,103.0,13.4,1505.2,325.7,-0.8,1.8,2471.078,13.29,0.025,295.6
2023-02-07T02:34:02,42.805,6.029,-0.017,0.025,0.001,104.0,103.0,104.0,13.3,1505.2,323.3,-0.7,1.8,2471.062,13.29,0.03,325.8
2023-02-07T02:37:02,42.805,6.029,-0.038,0.035,-0.004,105.0,104.0,103.0,13.3,1505.2,336.2,-0.8,1.8,2471.05,13.29,0.051,312.6
2023-02-07T02:40:02,42.805,6.029,-0.025,0.005,-0.013,106.0,105.0,103.0,13.4,1505.2,323.1,-0.8,1.8,2471.071,13.29,0.025,281.3
2023-02-07T02:43:03,42.805,6.029,-0.027,0.018,-0.015,103.0,105.0,103.0,13.4,1505.2,336.9,-0.8,1.8,2471.068,13.29,0.032,303.7
2023-02-07T02:46:03,42.805,6.029,-0.028,0.01,-0.007,105.0,104.0,104.0,13.4,1505.2,319.8,-0.8,1.8,2471.09,13.29,0.029,289.6
2023-02-07T02:49:03,42.805,6.029,-0.025,0.032,0.011,104.0,104.0,103.0,13.3,1505.2,336.8,-0.7,1.8,2471.06,13.29,0.04,322.0
2023-02-07T02:52:02,42.805,6.029,-0.019,0.014,-0.035,104.0,105.0,103.0,13.4,1505.2,328.3,-0.7,1.8,2471.07,13.29,0.023,306.4
2023-02-07T02:55:03,42.805,6.029,-0.02,0.007,-0.014,103.0,106.0,104.0,13.3,1505.2,329.5,-0.7,1.8,2471.064,13.29,0.021,289.3
2023-02-07T02:58:03,42.805,6.029,-0.036,-0.002,-0.022,105.0,104.0,104.0,13.3,1505.2,321.8,-0.8,1.8,2471.059,13.29,0.036,266.8
2023-02-07T03:04:02,42.805,6.029,-0.048,0.031,-0.017,104.0,104.0,104.0,13.3,1505.2,330.5,-0.8,1.8,2471.121,13.29,0.057,302.9
2023-02-07T03:07:02,42.805,6.029,-0.02,0.015,-0.009,104.0,103.0,104.0,13.4,1505.2,329.8,-0.8,1.8,2471.119,13.29,0.025,306.9
2023-02-07T03:10:03,42.805,6.029,-0.041,0.022,0.002,104.0,104.0,103.0,13.4,1505.2,315.0,-0.8,1.8,2471.096,13.29,0.046,298.2
2023-02-07T03:13:03,42.805,6.029,-0.031,0.021,-0.01,104.0,104.0,102.0,13.3,1505.2,329.1,-0.8,1.8,2471.098,13.29,0.037,304.1
2023-02-07T03:16:03,42.805,6.029,-0.029,0.012,0.002,104.0,105.0,104.0,13.3,1505.2,340.0,-0.7,1.8,2471.081,13.29,0.031,292.5
2023-02-07T03:19:03,42.805,6.029,-0.011,0.019,-0.029,105.0,104.0,103.0,13.3,1505.2,326.9,-0.8,1.8,2471.091,13.29,0.021,329.9
2023-02-07T03:22:02,42.805,6.029,-0.016,0.002,0.003,104.0,104.0,103.0,13.3,1505.2,325.0,-0.7,1.8,2471.059,13.29,0.016,277.1
2023-02-07T03:25:03,42.805,6.029,-0.016,0.004,0.004,105.0,104.0,103.0,13.4,1505.2,315.0,-0.8,1.8,2471.072,13.29,0.016,284.0
2023-02-07T03:28:03,42.805,6.029,-0.022,0.02,-0.01,104.0,105.0,103.0,13.3,1505.2,332.6,-0.8,1.8,2471.105,13.29,0.029,312.3
2023-02-07T03:31:03,42.805,6.029,-0.011,0.024,-0.004,105.0,105.0,103.0,13.3,1505.2,329.1,-0.8,1.8,2471.091,13.29,0.026,335.4
2023-02-07T03:34:03,42.805,6.029,-0.008,0.009,-0.019,105.0,105.0,103.0,13.3,1505.2,326.9,-0.8,1.8,2471.084,13.29,0.012,318.4
2023-02-07T03:37:03,42.805,6.029,-0.016,0.011,-0.017,104.0,104.0,103.0,13.4,1505.2,339.5,-0.8,1.8,2471.126,13.29,0.019,304.5
2023-02-07T03:40:03,42.805,6.029,-0.028,0.008,-0.004,104.0,105.0,103.0,13.3,1505.2,319.2,-0.8,1.8,2471.042,13.29,0.029,285.9
2023-02-07T03:43:03,42.805,6.029,-0.014,0.003,-0.009,104.0,105.0,103.0,13.4,1505.2,317.1,-0.8,1.8,2471.078,13.29,0.014,282.1
2023-02-07T03:46:03,42.805,6.029,-0.003,-0.015,-0.02,103.0,105.0,103.0,13.4,1505.2,321.0,-0.8,1.8,2471.088,13.29,0.015,191.3
2023-02-07T03:49:03,42.805,6.029,-0.018,0.009,-0.021,105.0,104.0,103.0,13.3,1505.2,330.3,-0.8,1.8,2471.115,13.29,0.02,296.6
2023-02-07T03:52:03,42.805,6.029,-0.016,0.003,-0.008,104.0,104.0,103.0,13.3,1505.2,316.0,-0.8,1.8,2471.048,13.29,0.016,280.6
2023-02-07T03:55:03,42.805,6.029,-0.012,-0.004,-0.066,105.0,104.0,103.0,13.3,1505.2,324.5,-0.8,1.8,2471.072,13.29,0.012,251.6
2023-02-07T03:58:03,42.805,6.029,-0.045,0.022,-0.024,104.0,103.0,102.0,13.3,1505.2,339.0,-0.8,1.8,2471.108,13.29,0.05,296.1
2023-02-07T04:04:02,42.805,6.029,-0.009,0.012,0.003,105.0,102.0,102.0,13.3,1505.2,318.6,-0.8,1.8,2471.139,13.29,0.015,323.1
2023-02-07T04:07:03,42.805,6.029,-0.018,0.012,-0.009,104.0,104.0,103.0,13.4,1505.2,329.1,-0.8,1.8,2471.118,13.29,0.021,303.7
2023-02-07T04:10:03,42.805,6.029,-0.013,0.024,-0.003,104.0,104.0,103.0,13.3,1505.2,338.2,-0.8,1.8,2471.151,13.29,0.027,331.6
2023-02-07T04:13:03,42.805,6.029,-0.027,0.014,0.004,104.0,104.0,103.0,13.4,1505.2,317.6,-0.8,1.8,2471.146,13.29,0.03,297.4
2023-02-07T04:16:03,42.805,6.029,-0.025,0.031,0.007,105.0,104.0,103.0,13.4,1505.2,319.1,-0.8,1.8,2471.1,13.29,0.039,321.1
2023-02-07T04:19:03,42.805,6.029,-0.029,0.028,0.019,104.0,103.0,102.0,13.4,1505.2,329.1,-0.8,1.8,2471.122,13.29,0.04,314.0
2023-02-07T04:22:03,42.805,6.029,-0.021,0.015,-0.03,104.0,104.0,103.0,13.3,1505.2,332.2,-0.8,1.8,2471.099,13.29,0.025,305.5
2023-02-07T04:25:03,42.805,6.029,0.004,0.004,0.001,104.0,104.0,103.0,13.4,1505.2,327.6,-0.8,1.8,2471.113,13.29,0.005,45.0
2023-02-07T04:28:03,42.805,6.029,0.0,0.005,-0.025,105.0,102.0,103.0,13.4,1505.2,322.4,-0.8,1.8,2471.095,13.29,0.005,0.0
2023-02-07T04:31:03,42.805,6.029,0.001,0.0,-0.018,104.0,105.0,103.0,13.3,1505.2,322.1,-0.8,1.8,2471.136,13.29,0.001,90.0
2023-02-07T04:34:03,42.805,6.029,-0.012,0.007,0.008,104.0,103.0,103.0,13.4,1505.2,338.0,-0.8,1.8,2471.067,13.29,0.013,300.3
2023-02-07T04:37:03,42.805,6.029,-0.019,0.003,-0.027,104.0,104.0,103.0,13.4,1505.2,324.1,-0.7,1.8,2471.154,13.29,0.019,279.0
2023-02-07T04:40:03,42.805,6.029,-0.009,0.029,-0.01,104.0,104.0,104.0,13.3,1505.2,332.1,-0.7,1.8,2471.106,13.29,0.03,342.8
2023-02-07T04:43:03,42.805,6.029,-0.021,0.0,-0.032,104.0,104.0,103.0,13.4,1505.2,326.0,-0.8,1.8,2471.093,13.29,0.021,270.0
2023-02-07T04:46:03,42.805,6.029,-0.032,-0.008,-0.009,104.0,104.0,102.0,13.4,1505.2,317.6,-0.8,1.8,2471.152,13.29,0.032,256.0
2023-02-07T04:49:03,42.805,6.029,-0.009,0.029,0.017,104.0,103.0,103.0,13.4,1505.2,319.5,-0.8,1.8,2471.141,13.29,0.03,342.8
2023-02-07T04:52:03,42.805,6.029,0.001,0.021,0.016,104.0,104.0,103.0,13.4,1505.2,328.4,-0.7,1.8,2471.144,13.29,0.021,2.7
2023-02-07T04:55:03,42.805,6.029,-0.032,0.014,-0.024,105.0,103.0,102.0,13.4,1505.2,325.4,-0.8,1.8,2471.111,13.29,0.034,293.6
2023-02-07T04:58:03,42.805,6.029,-0.005,0.024,-0.005,105.0,105.0,101.0,13.4,1505.2,329.0,-0.7,1.8,2471.147,13.29,0.024,348.2
2023-02-07T05:04:03,42.805,6.029,-0.014,0.008,-0.032,104.0,105.0,103.0,13.4,1505.2,315.5,-0.8,1.8,2471.2,13.29,0.016,299.7
2023-02-07T05:07:03,42.805,6.029,-0.008,0.0,-0.02,104.0,104.0,104.0,13.4,1505.2,322.2,-0.8,1.8,2471.207,13.29,0.008,270.0
2023-02-07T05:10:03,42.805,6.029,0.013,0.007,-0.015,104.0,104.0,102.0,13.4,1505.2,315.0,-0.8,1.8,2471.164,13.29,0.014,61.7
2023-02-07T05:13:03,42.805,6.029,-0.007,-0.018,-0.043,105.0,103.0,103.0,13.4,1505.2,323.4,-0.8,1.8,2471.193,13.29,0.019,201.2
2023-02-07T05:16:03,42.805,6.029,-0.015,-0.002,-0.02,103.0,104.0,103.0,13.3,1505.2,325.5,-0.7,1.8,2471.17,13.29,0.015,262.4
2023-02-07T05:19:03,42.805,6.029,0.002,0.011,-0.004,104.0,103.0,102.0,13.4,1505.2,322.9,-0.8,1.8,2471.168,13.29,0.011,10.3
2023-02-07T05:22:03,42.805,6.029,-0.027,0.023,0.014,104.0,103.0,102.0,13.4,1505.2,336.4,-0.7,1.8,2471.226,13.29,0.035,310.4
2023-02-07T05:25:03,42.805,6.029,-0.02,0.007,-0.05,103.0,104.0,102.0,13.4,1505.2,336.1,-0.8,1.8,2471.187,13.29,0.021,289.3
2023-02-07T05:28:03,42.805,6.029,-0.011,0.026,-0.016,104.0,103.0,103.0,13.4,1505.2,318.6,-0.8,1.8,2471.162,13.29,0.028,337.1
2023-02-07T05:31:03,42.805,6.029,-0.025,0.001,0.001,104.0,104.0,103.0,13.4,1505.2,320.9,-0.8,1.8,2471.19,13.29,0.025,272.3
2023-02-07T05:34:03,42.805,6.029,-0.006,0.011,-0.024,104.0,103.0,103.0,13.4,1505.2,329.8,-0.8,1.8,2471.182,13.29,0.012,331.4
2023-02-07T05:37:03,42.805,6.029,-0.021,0.019,0.007,103.0,104.0,102.0,13.3,1505.2,331.5,-0.7,1.8,2471.176,13.29,0.028,312.1
2023-02-07T05:40:03,42.805,6.029,-0.009,-0.001,-0.012,105.0,104.0,102.0,13.4,1505.2,333.0,-0.8,1.8,2471.165,13.29,0.009,263.7
2023-02-07T05:43:03,42.805,6.029,-0.011,0.017,-0.001,106.0,103.0,103.0,13.4,1505.2,323.1,-0.7,1.9,2471.191,13.29,0.02,327.1
2023-02-07T05:46:03,42.805,6.029,0.001,0.0,-0.002,104.0,104.0,103.0,13.4,1505.2,337.1,-0.8,1.8,2471.198,13.29,0.001,90.0
2023-02-07T05:49:03,42.805,6.029,0.001,0.017,0.0,104.0,104.0,102.0,13.3,1505.2,335.6,-0.8,1.8,2471.175,13.29,0.017,3.4
2023-02-07T05:52:03,42.805,6.029,0.017,0.0,-0.008,103.0,104.0,102.0,13.4,1505.2,337.7,-0.8,1.8,2471.206,13.29,0.017,90.0
2023-02-07T05:55:03,42.805,6.029,0.007,0.011,-0.014,104.0,104.0,102.0,13.4,1505.2,335.4,-0.7,1.8,2471.196,13.3,0.013,32.5
2023-02-07T05:58:03,42.805,6.029,-0.007,-0.008,-0.007,103.0,104.0,103.0,13.3,1505.2,333.4,-0.8,1.8,2471.218,13.3,0.01,221.2
2023-02-07T06:04:03,42.805,6.029,0.006,-0.005,-0.007,103.0,105.0,102.0,13.3,1505.2,316.1,-0.8,1.8,2471.266,13.29,0.007,129.8
2023-02-07T06:07:03,42.805,6.029,-0.012,-0.009,-0.019,104.0,103.0,103.0,13.4,1505.2,333.4,-0.8,1.8,2471.265,13.29,0.015,233.1
2023-02-07T06:10:03,42.805,6.029,-0.022,0.009,0.001,103.0,103.0,103.0,13.3,1505.2,323.3,-0.8,1.8,2471.272,13.29,0.023,292.2
2023-02-07T06:13:03,42.805,6.029,-0.007,0.019,0.005,104.0,105.0,103.0,13.3,1505.2,327.3,-0.7,1.9,2471.282,13.29,0.02,339.8
2023-02-07T06:16:03,42.805,6.029,-0.01,-0.032,-0.025,104.0,103.0,102.0,13.4,1505.2,327.3,-0.8,1.8,2471.276,13.29,0.033,197.4
2023-02-07T06:19:03,42.805,6.029,-0.027,-0.005,-0.023,105.0,103.0,102.0,13.4,1505.2,335.4,-0.8,1.8,2471.267,13.29,0.027,259.5
2023-02-07T06:22:03,42.805,6.029,-0.002,0.018,0.012,105.0,102.0,102.0,13.4,1505.2,318.5,-0.8,1.8,2471.244,13.29,0.018,353.7
2023-02-07T06:25:03,42.805,6.029,-0.005,0.006,-0.021,104.0,105.0,102.0,13.4,1505.2,314.4,-0.8,1.8,2471.242,13.29,0.007,320.2
2023-02-07T06:28:03,42.805,6.029,0.019,0.002,-0.028,104.0,102.0,102.0,13.4,1505.2,323.6,-0.8,1.8,2471.251,13.3,0.019,84.0
2023-02-07T06:31:03,42.805,6.029,-0.003,-0.011,0.005,103.0,105.0,104.0,13.4,1505.2,329.6,-0.8,1.8,2471.272,13.3,0.011,195.3
2023-02-07T06:34:03,42.805,6.029,-0.021,0.014,0.005,104.0,104.0,102.0,13.4,1505.2,316.6,-0.8,1.8,2471.282,13.3,0.025,303.7
2023-02-07T06:37:03,42.805,6.029,0.005,0.005,0.001,104.0,104.0,102.0,13.4,1505.2,327.0,-0.7,1.8,2471.241,13.3,0.007,45.0
2023-02-07T06:40:03,42.805,6.029,0.002,-0.01,-0.047,104.0,103.0,102.0,13.4,1505.2,329.6,-0.8,1.9,2471.251,13.3,0.01,168.7
2023-02-07T06:43:03,42.805,6.029,-0.013,-0.004,-0.006,104.0,103.0,102.0,13.4,1505.2,324.7,-0.8,1.8,2471.277,13.29,0.013,252.9
2023-02-07T06:46:03,42.805,6.029,-0.004,-0.001,-0.009,104.0,104.0,102.0,13.3,1505.2,317.2,-0.7,1.8,2471.268,13.29,0.004,256.0
2023-02-07T06:49:03,42.805,6.029,0.006,-0.01,0.013,103.0,104.0,103.0,13.4,1505.2,318.6,-0.7,1.8,2471.282,13.29,0.011,149.0
2023-02-07T06:52:03,42.805,6.029,0.001,-0.004,-0.019,102.0,105.0,103.0,13.4,1505.2,323.3,-0.8,1.8,2471.318,13.29,0.004,166.0
2023-02-07T06:55:03,42.805,6.029,0.0,0.0,0.0,104.0,102.0,103.0,13.3,1505.2,322.7,-0.7,1.8,2471.26,13.29,0.0,0.0
2023-02-07T06:58:03,42.805,6.029,-0.006,0.007,-0.033,103.0,104.0,103.0,13.4,1505.2,335.6,-0.7,1.8,2471.272,13.29,0.009,319.4
2023-02-07T07:04:03,42.805,6.029,0.008,-0.007,0.011,104.0,104.0,103.0,13.4,1505.2,331.9,-0.8,1.8,2471.325,13.29,0.01,131.2
2023-02-07T07:07:03,42.805,6.029,-0.007,-0.006,-0.016,103.0,105.0,102.0,13.4,1505.2,333.4,-0.8,1.8,2471.344,13.29,0.009,229.4
2023-02-07T07:10:03,42.805,6.029,0.0,-0.003,0.0,104.0,103.0,103.0,13.4,1505.2,338.5,-0.8,1.8,2471.351,13.29,0.003,180.0
2023-02-07T07:13:03,42.805,6.029,0.021,0.013,0.003,103.0,105.0,101.0,13.4,1505.2,330.6,-0.8,1.8,2471.311,13.29,0.024,58.2
2023-02-07T07:16:03,42.805,6.029,0.011,0.003,-0.024,103.0,105.0,101.0,13.4,1505.2,324.0,-0.7,1.8,2471.29,13.29,0.011,74.7
2023-02-07T07:19:03,42.805,6.029,0.003,-0.012,0.001,103.0,104.0,102.0,13.4,1505.2,323.9,-0.8,1.8,2471.333,13.29,0.012,166.0
2023-02-07T07:22:03,42.805,6.029,0.014,-0.018,-0.027,104.0,103.0,102.0,13.4,1505.2,329.7,-0.8,1.8,2471.324,13.29,0.022,142.1
2023-02-07T07:25:03,42.805,6.029,0.014,-0.009,-0.018,104.0,103.0,103.0,13.3,1505.2,330.4,-0.8,1.8,2471.328,13.29,0.016,122.7
2023-02-07T07:28:03,42.805,6.029,0.016,-0.005,-0.003,103.0,103.0,103.0,13.4,1505.2,322.9,-0.7,1.8,2471.325,13.29,0.016,107.4
2023-02-07T07:31:03,42.805,6.029,0.004,-0.01,-0.013,103.0,104.0,102.0,13.4,1505.2,332.9,-0.8,1.8,2471.35,13.29,0.01,158.2
2023-02-07T07:34:03,42.805,6.029,0.016,0.002,-0.015,103.0,105.0,102.0,13.4,1505.2,321.8,-0.7,1.8,2471.328,13.29,0.016,82.9
2023-02-07T07:37:03,42.805,6.029,-0.015,0.004,0.0,105.0,104.0,102.0,13.4,1505.2,317.1,-0.8,1.8,2471.311,13.29,0.015,284.9
2023-02-07T07:40:03,42.805,6.029,-0.009,0.015,-0.028,103.0,104.0,102.0,13.4,1505.2,330.1,-0.8,1.8,2471.326,13.29,0.017,329.0
2023-02-07T07:43:03,42.805,6.029,0.013,-0.004,-0.032,103.0,104.0,102.0,13.4,1505.2,323.1,-0.8,1.8,2471.316,13.29,0.013,107.1
2023-02-07T07:46:03,42.805,6.029,0.0,-0.014,0.006,102.0,102.0,102.0,13.4,1505.2,319.6,-0.7,1.8,2471.33,13.29,0.014,180.0
2023-02-07T07:49:03,42.805,6.029,-0.01,-0.007,-0.028,105.0,102.0,102.0,13.4,1505.2,331.5,-0.8,1.8,2471.291,13.29,0.012,235.0
2023-02-07T07:52:03,42.805,6.029,-0.003,-0.003,0.002,105.0,105.0,103.0,13.4,1505.2,332.5,-0.7,1.8,2471.295,13.29,0.004,225.0
2023-02-07T07:55:03,42.805,6.029,0.014,-0.026,-0.017,103.0,103.0,103.0,13.4,1505.2,336.9,-0.7,1.8,2471.344,13.29,0.029,151.7
2023-02-07T07:58:03,42.805,6.029,0.004,-0.026,-0.018,104.0,103.0,103.0,13.4,1505.2,326.0,-0.8,1.8,2471.322,13.29,0.026,171.3
2023-02-07T08:04:03,42.805,6.029,0.001,-0.025,-0.034,104.0,103.0,102.0,13.4,1505.2,324.0,-0.7,1.8,2471.369,13.28,0.025,177.7
2023-02-07T08:07:03,42.805,6.029,0.001,-0.027,-0.041,103.0,104.0,103.0,13.4,1505.2,326.0,-0.7,1.8,2471.362,13.29,0.027,177.9
2023-02-07T08:10:03,42.805,6.029,0.027,-0.008,-0.011,104.0,105.0,102.0,13.4,1505.2,324.0,-0.8,1.8,2471.39,13.29,0.028,106.5
2023-02-07T08:13:03,42.805,6.029,0.006,-0.028,-0.018,104.0,103.0,102.0,13.4,1505.2,333.8,-0.7,1.8,2471.34,13.29,0.028,167.9
2023-02-07T08:16:03,42.805,6.029,0.019,-0.017,0.005,103.0,103.0,103.0,13.3,1505.2,319.7,-0.8,1.8,2471.316,13.29,0.025,131.8
2023-02-07T08:19:03,42.805,6.029,0.017,-0.03,-0.016,105.0,104.0,103.0,13.3,1505.2,330.7,-0.8,1.8,2471.364,13.29,0.034,150.5
2023-02-07T08:22:03,42.805,6.029,0.013,-0.019,-0.02,104.0,104.0,103.0,13.4,1505.2,314.4,-0.8,1.8,2471.312,13.29,0.023,145.6
2023-02-07T08:25:03,42.805,6.029,0.003,-0.009,-0.015,103.0,104.0,103.0,13.4,1505.2,330.7,-0.7,1.8,2471.367,13.29,0.009,161.6
2023-02-07T08:28:03,42.805,6.029,0.03,-0.023,0.027,104.0,103.0,102.0,13.3,1505.2,330.0,-0.7,1.8,2471.341,13.29,0.037,127.5
2023-02-07T08:31:03,42.805,6.029,0.017,-0.005,-0.003,104.0,103.0,103.0,13.4,1505.2,320.8,-0.7,1.8,2471.344,13.29,0.017,106.4
2023-02-07T08:34:03,42.805,6.029,0.0,-0.007,0.0,105.0,103.0,103.0,13.4,1505.2,323.7,-0.8,1.8,2471.321,13.29,0.007,180.0
2023-02-07T08:37:03,42.805,6.029,-0.011,-0.005,-0.021,104.0,105.0,103.0,13.4,1505.2,325.2,-0.7,1.8,2471.329,13.29,0.012,245.6
2023-02-07T08:40:03,42.805,6.029,-0.012,-0.019,-0.02,104.0,104.0,103.0,13.3,1505.2,315.5,-0.8,1.8,2471.309,13.29,0.022,212.3
2023-02-07T08:43:03,42.805,6.029,0.005,-0.025,-0.004,105.0,103.0,103.0,13.4,1505.2,339.4,-0.7,1.9,2471.341,13.29,0.025,168.7
2023-02-07T08:46:03,42.805,6.029,-0.006,-0.027,0.0,105.0,106.0,102.0,13.4,1505.2,322.3,-0.8,1.8,2471.354,13.29,0.027,192.5
2023-02-07T08:49:03,42.805,6.029,0.004,-0.021,-0.05,104.0,103.0,103.0,13.3,1505.2,321.6,-0.8,1.8,2471.358,13.29,0.021,169.2
2023-02-07T08:52:03,42.805,6.029,-0.015,-0.001,0.0,105.0,103.0,103.0,13.3,1505.2,320.7,-0.7,1.8,2471.311,13.29,0.015,266.2
2023-02-07T08:55:03,42.805,6.029,-0.011,-0.027,-0.033,105.0,104.0,102.0,13.4,1505.2,324.7,-0.8,1.8,2471.336,13.29,0.029,202.2
2023-02-07T08:58:03,42.805,6.029,-0.001,-0.02,-0.047,105.0,104.0,103.0,13.4,1505.2,317.0,-0.8,1.8,2471.354,13.29,0.02,182.9
2023-02-07T09:04:03,42.805,6.029,-0.009,-0.022,-0.041,105.0,104.0,103.0,13.4,1505.2,328.3,-0.8,1.8,2471.366,13.28,0.023,202.2
2023-02-07T09:07:03,42.805,6.029,0.016,-0.023,-0.021,104.0,103.0,103.0,13.3,1505.2,337.6,-0.8,1.8,2471.357,13.28,0.028,145.2
2023-02-07T09:10:03,42.805,6.029,-0.023,-0.014,-0.017,105.0,105.0,103.0,13.4,1505.2,333.0,-0.8,1.8,2471.392,13.29,0.026,238.7
2023-02-07T09:13:03,42.805,6.029,-0.004,-0.032,-0.014,105.0,104.0,103.0,13.4,1505.2,324.3,-0.8,1.8,2471.397,13.29,0.032,187.1
2023-02-07T09:16:03,42.805,6.029,-0.017,-0.033,-0.039,104.0,104.0,104.0,13.3,1505.2,327.8,-0.8,1.8,2471.352,13.29,0.037,207.3
2023-02-07T09:19:03,42.805,6.029,-0.023,-0.03,-0.043,104.0,104.0,103.0,13.3,1505.2,334.2,-0.8,1.8,2471.333,13.29,0.037,217.5
2023-02-07T09:22:03,42.805,6.029,-0.029,-0.018,-0.011,105.0,105.0,103.0,13.3,1505.2,329.1,-0.7,1.8,2471.328,13.29,0.034,238.2
2023-02-07T09:25:03,42.805,6.029,-0.016,-0.025,0.004,104.0,105.0,105.0,13.4,1505.2,325.4,-0.7,1.8,2471.345,13.29,0.029,212.6
2023-02-07T09:28:03,42.805,6.029,-0.009,-0.02,-0.031,104.0,103.0,103.0,13.4,1505.2,322.4,-0.8,1.8,2471.321,13.29,0.021,204.2
2023-02-07T09:31:03,42.805,6.029,-0.016,-0.012,-0.017,104.0,104.0,102.0,13.4,1505.2,329.0,-0.7,1.8,2471.334,13.29,0.02,233.1
2023-02-07T09:34:03,42.805,6.029,0.006,-0.02,-0.023,105.0,105.0,102.0,13.4,1505.2,326.5,-0.7,1.8,2471.347,13.29,0.02,163.3
2023-02-07T09:37:03,42.805,6.029,-0.003,-0.032,-0.037,104.0,104.0,103.0,13.4,1505.2,339.1,-0.7,1.8,2471.361,13.29,0.032,185.4
2023-02-07T09:40:03,42.805,6.029,-0.016,-0.034,-0.049,104.0,104.0,103.0,13.3,1505.2,333.0,-0.7,1.8,2471.347,13.29,0.037,205.2
2023-02-07T09:43:03,42.805,6.029,0.01,-0.03,-0.019,104.0,104.0,103.0,13.4,1505.2,316.0,-0.8,1.8,2471.367,13.29,0.031,161.6
2023-02-07T09:46:03,42.805,6.029,-0.009,-0.019,-0.003,106.0,104.0,103.0,13.3,1505.2,325.2,-0.8,1.8,2471.366,13.29,0.021,205.3
2023-02-07T09:49:03,42.805,6.029,-0.032,0.001,-0.024,105.0,104.0,102.0,13.4,1505.2,332.9,-0.7,1.8,2471.32,13.29,0.032,271.8
2023-02-07T09:52:03,42.805,6.029,0.009,-0.008,0.026,104.0,103.0,102.0,13.4,1505.2,315.0,-0.8,1.8,2471.321,13.29,0.012,131.6
2023-02-07T09:55:03,42.805,6.029,-0.023,-0.019,-0.025,105.0,105.0,103.0,13.3,1505.2,324.2,-0.8,1.8,2471.339,13.29,0.029,230.4